Location: Cathedral Gorge
(37.8167°N, 114.4167°W)
Time: 15:29:32
(UTC-07:00)

N. Korean satellite - Visible Passes

Search period start: 17 October 2017 00:00
Search period end: 27 October 2017 00:00
Orbit: 459 x 517 km, 97.2° (Epoch: 17 October)

Date Brightness Start Highest point End Pass type
(mag) Time Alt. Az. Time Alt. Az. Time Alt. Az.
17 Oct 6.8 18:22:34 10° SSE 18:25:57 43° ENE 18:29:18 10° N visible
18 Oct 9.5 19:33:40 10° SW 19:36:11 18° W 19:38:42 10° NW visible
19 Oct 8.2 19:09:28 10° SSW 19:12:45 37° W 19:16:02 10° NNW visible
20 Oct 6.5 18:45:52 10° S 18:49:24 83° WSW 18:52:54 10° NNW visible
21 Oct 6.8 18:22:45 10° SSE 18:26:07 44° ENE 18:29:26 10° N visible
22 Oct 9.5 19:33:53 10° SW 19:36:20 18° W 19:38:47 10° NW visible
23 Oct 8.2 19:09:38 10° SSW 19:12:54 36° W 19:16:08 10° NNW visible
24 Oct 6.5 18:46:02 10° S 18:49:32 82° W 18:53:00 10° NNW visible
25 Oct 6.8 18:22:53 10° SSE 18:26:12 44° ENE 18:29:31 10° N visible
26 Oct 9.5 19:34:02 10° SW 19:36:25 17° W 19:38:49 10° NW visible
